Location: Mermaid+Beach
(28.0410°S, 153.4380°E)
Time: 03:00:02
(UTC+10:00)

ISS - Visible Passes

Search period start: 23 September 2017 00:00
Search period end: 03 October 2017 00:00
Orbit: 401 x 407 km, 51.6° (Epoch: 23 September)

Date Brightness Start Highest point End Pass type
(mag) Time Alt. Az. Time Alt. Az. Time Alt. Az.
27 Sep -1.5 05:05:44 10° N 05:08:29 25° NE 05:11:16 10° ESE visible
28 Sep -0.7 04:15:17 10° NE 04:16:18 11° NE 04:17:19 10° ENE visible
29 Sep -3.8 04:56:45 10° NW 05:00:03 86° NE 05:03:23 10° SE visible
30 Sep -2.3 04:06:06 20° N 04:07:44 33° NE 04:10:46 10° ESE visible
01 Oct -0.7 03:16:26 13° ENE 03:16:26 13° ENE 03:17:25 10° E visible
01 Oct -2.7 04:49:07 12° WNW 04:51:42 30° SW 04:54:41 10° SSE visible
02 Oct -3.9 03:59:17 70° SW 03:59:17 70° SW 04:02:34 10° SE visible
